| time (UTC) | temp C | wind direction | speed KPH | gust KPH | rain 1hr cm | rain 24hr cm | rain mn cm | humidity % | barometer mb |
| 20260905175019 | 30 | 26 | 0.0 | 6.4 | 0.00 | 4.24 | 0.00 | 77 | 1013.7 |
| 20260905174504 | 30 | 300 | 3.2 | 11.3 | 0.00 | 4.24 | 0.00 | 76 | 1013.8 |
| 20260905174003 | 30 | 248 | 4.8 | 11.3 | 0.00 | 4.24 | 0.00 | 76 | 1013.9 |
| 20260905173503 | 30 | 167 | 3.2 | 4.8 | 0.00 | 4.24 | 0.00 | 76 | 1013.9 |
| 20260905173030 | 30 | 171 | 0.0 | 9.7 | 0.00 | 4.24 | 0.00 | 77 | 1014.0 |
| 20260905172507 | 30 | 291 | 4.8 | 9.7 | 0.00 | 4.24 | 0.00 | 76 | 1014.1 |
| 20260905172007 | 30 | 255 | 0.0 | 6.4 | 0.00 | 4.24 | 0.00 | 78 | 1014.1 |
| 20260905171515 | 30 | 315 | 3.2 | 6.4 | 0.00 | 4.24 | 0.00 | 78 | 1014.3 |
| 20260905171009 | 30 | 336 | 0.0 | 11.3 | 0.00 | 4.24 | 0.00 | 79 | 1014.3 |
| 20260905170510 | 30 | 336 | 6.4 | 11.3 | 0.00 | 4.24 | 0.00 | 77 | 1014.5 |
| 20260905170029 | 30 | 274 | 0.0 | 8.0 | 0.00 | 4.24 | 0.00 | 77 | 1014.5 |
| 20260905165514 | 30 | 44 | 3.2 | 8.0 | 0.00 | 4.24 | 0.00 | 78 | 1014.4 |
| 20260905165013 | 30 | 76 | 1.6 | 8.0 | 0.00 | 4.24 | 0.00 | 80 | 1014.5 |
| 20260905164532 | 30 | 42 | 4.8 | 9.7 | 0.00 | 4.27 | 0.00 | 81 | 1014.6 |
| 20260905164017 | 29 | 312 | 4.8 | 11.3 | 0.00 | 4.27 | 0.00 | 80 | 1014.7 |
| 20260905163503 | 29 | 309 | 4.8 | 14.5 | 0.00 | 4.27 | 0.00 | 82 | 1014.7 |
| 20260905163009 | 29 | 352 | 6.4 | 14.5 | 0.00 | 4.27 | 0.00 | 81 | 1014.9 |
| 20260905162507 | 30 | 24 | 4.8 | 9.7 | 0.00 | 4.27 | 0.00 | 81 | 1014.9 |
| 20260905162005 | 30 | 334 | 3.2 | 8.0 | 0.00 | 4.27 | 0.00 | 81 | 1014.9 |
| 20260905161514 | 29 | 311 | 3.2 | 6.4 | 0.00 | 4.27 | 0.00 | 80 | 1014.9 |
| 20260905161008 | 29 | 80 | 1.6 | 8.0 | 0.00 | 4.27 | 0.00 | 82 | 1014.8 |
| 20260905160509 | 29 | 57 | 4.8 | 6.4 | 0.00 | 4.27 | 0.00 | 81 | 1014.9 |
| 20260905160021 | 28 | 346 | 1.6 | 6.4 | 0.00 | 4.27 | 0.00 | 83 | 1015.0 |
| 20260905155514 | 28 | 5 | 1.6 | 8.0 | 0.00 | 4.27 | 0.00 | 85 | 1015.0 |
| 20260905155011 | 28 | 86 | 3.2 | 9.7 | 0.00 | 4.27 | 0.00 | 90 | 1014.9 |
| 20260905154526 | 27 | 22 | 3.2 | 11.3 | 0.00 | 4.27 | 0.00 | 90 | 1014.9 |
| 20260905154015 | 28 | 22 | 4.8 | 11.3 | 0.00 | 4.27 | 0.00 | 89 | 1014.9 |
| 20260905153516 | 28 | 14 | 4.8 | 8.0 | 0.00 | 4.27 | 0.00 | 90 | 1014.9 |
| 20260905153037 | 27 | 45 | 1.6 | 6.4 | 0.00 | 4.27 | 0.00 | 91 | 1014.9 |
| 20260905152504 | 27 | 23 | 1.6 | 4.8 | 0.00 | 4.27 | 0.00 | 92 | 1015.1 |
| 20260905152006 | 27 | 15 | 0.0 | 6.4 | 0.00 | 4.27 | 0.00 | 93 | 1015.1 |
| 20260905151515 | 27 | 17 | 3.2 | 6.4 | 0.00 | 4.27 | 0.00 | 93 | 1015.2 |
| 20260905151007 | 27 | 360 | 3.2 | 6.4 | 0.00 | 4.27 | 0.00 | 94 | 1015.1 |
| 20260905150506 | 27 | 317 | 1.6 | 4.8 | 0.00 | 4.27 | 0.00 | 95 | 1015.1 |
| 20260905150019 | 26 | 103 | 0.0 | 3.2 | 0.00 | 4.27 | 0.00 | 97 | 1015.1 |
| 20260905145512 | 26 | 18 | 0.0 | 3.2 | 0.00 | 4.27 | 0.00 | 97 | 1015.1 |
| 20260905145010 | 26 | 18 | 0.0 | 3.2 | 0.00 | 4.27 | 0.00 | 98 | 1015.0 |
| 20260905144528 | 26 | 142 | 0.0 | 0.0 | 0.00 | 4.27 | 0.00 | 98 | 1015.0 |
| 20260905144011 | 26 | 40 | 0.0 | 0.0 | 0.00 | 4.27 | 0.00 | 98 | 1015.0 |
| 20260905143515 | 25 | 40 | 0.0 | 0.0 | 0.00 | 4.27 | 0.00 | 98 | 1014.9 |
| 20260905143032 | 25 | 40 | 0.0 | 0.0 | 0.00 | 4.27 | 0.00 | 98 | 1015.0 |
| 20260905142514 | 25 | 31 | 0.0 | 0.0 | 0.00 | 4.27 | 0.00 | 98 | 1015.0 |
| 20260905142014 | 25 | 31 | 0.0 | 0.0 | 0.00 | 4.27 | 0.00 | 98 | 1015.0 |
| 20260905141511 | 25 | 31 | 0.0 | 0.0 | 0.00 | 4.27 | 0.00 | 98 | 1015.0 |
| 20260905141006 | 25 | 78 | 0.0 | 6.4 | 0.00 | 4.27 | 0.00 | 98 | 1014.9 |
| 20260905140508 | 25 | 85 | 0.0 | 6.4 | 0.00 | 4.27 | 0.00 | 98 | 1014.9 |
| 20260905140029 | 25 | 82 | 1.6 | 6.4 | 0.00 | 4.27 | 0.00 | 98 | 1014.9 |
| 20260905135507 | 25 | 97 | 4.8 | 6.4 | 0.00 | 4.27 | 0.00 | 98 | 1014.9 |
| 20260905135012 | 25 | 105 | 3.2 | 6.4 | 0.00 | 4.27 | 0.00 | 98 | 1015.0 |
| 20260905134525 | 25 | 89 | 3.2 | 6.4 | 0.00 | 4.27 | 0.00 | 98 | 1015.0 |
| 20260905134013 | 24 | 53 | 1.6 | 6.4 | 0.00 | 4.27 | 0.00 | 98 | 1015.0 |
| 20260905133513 | 24 | 93 | 3.2 | 6.4 | 0.00 | 4.27 | 0.00 | 98 | 1014.9 |
| 20260905133030 | 24 | 73 | 4.8 | 6.4 | 0.00 | 4.27 | 0.00 | 98 | 1015.0 |
| 20260905132514 | 24 | 82 | 1.6 | 4.8 | 0.00 | 4.27 | 0.00 | 98 | 1015.0 |
| 20260905132019 | 24 | 82 | 3.2 | 4.8 | 0.00 | 4.27 | 0.00 | 98 | 1015.0 |
| 20260905131529 | 24 | 36 | 3.2 | 4.8 | 0.00 | 4.27 | 0.00 | 98 | 1015.0 |
| 20260905131003 | 23 | 61 | 1.6 | 4.8 | 0.00 | 4.27 | 0.00 | 98 | 1015.0 |
| 20260905130509 | 23 | 83 | 1.6 | 4.8 | 0.00 | 4.27 | 0.00 | 98 | 1015.0 |
| 20260905130017 | 23 | 360 | 0.0 | 3.2 | 0.00 | 4.27 | 0.00 | 98 | 1015.0 |
| 20260905125508 | 23 | 22 | 0.0 | 3.2 | 0.00 | 4.27 | 0.00 | 98 | 1014.9 |
| 20260905125011 | 23 | 48 | 0.0 | 3.2 | 0.00 | 4.27 | 0.00 | 98 | 1014.9 |
| 20260905124525 | 23 | 339 | 1.6 | 3.2 | 0.00 | 4.27 | 0.00 | 98 | 1014.7 |
| 20260905124013 | 23 | 30 | 1.6 | 3.2 | 0.00 | 4.27 | 0.00 | 98 | 1014.7 |
| 20260905123514 | 23 | 86 | 0.0 | 3.2 | 0.00 | 4.27 | 0.00 | 98 | 1014.7 |
| 20260905123033 | 23 | 67 | 1.6 | 4.8 | 0.00 | 4.27 | 0.00 | 98 | 1014.7 |
| 20260905122514 | 23 | 22 | 0.0 | 4.8 | 0.00 | 4.27 | 0.00 | 98 | 1014.7 |
| 20260905122022 | 23 | 26 | 3.2 | 4.8 | 0.00 | 4.27 | 0.00 | 98 | 1014.7 |
| 20260905121532 | 23 | 46 | 0.0 | 0.0 | 0.00 | 4.27 | 0.00 | 98 | 1014.7 |
| 20260905121017 | 23 | 46 | 0.0 | 0.0 | 0.00 | 4.27 | 0.00 | 98 | 1014.6 |
| 20260905120517 | 23 | 46 | 0.0 | 0.0 | 0.00 | 4.27 | 0.00 | 98 | 1014.4 |
| 20260905120018 | 23 | 291 | 0.0 | 0.0 | 0.00 | 4.27 | 0.00 | 98 | 1014.3 |
| 20260905115506 | 23 | 291 | 0.0 | 0.0 | 0.00 | 4.27 | 0.00 | 98 | 1014.2 |
| 20260905115010 | 23 | 291 | 0.0 | 0.0 | 0.00 | 4.27 | 0.00 | 98 | 1014.2 |
| 20260905114526 | 23 | 185 | 0.0 | 0.0 | 0.00 | 4.27 | 0.00 | 98 | 1014.2 |
| 20260905114011 | 23 | 169 | 0.0 | 3.2 | 0.00 | 4.27 | 0.00 | 98 | 1014.1 |
| 20260905113512 | 23 | 172 | 0.0 | 3.2 | 0.00 | 4.27 | 0.00 | 98 | 1014.0 |
| 20260905113030 | 23 | 180 | 1.6 | 3.2 | 0.00 | 4.27 | 0.00 | 98 | 1013.8 |
| 20260905112515 | 23 | 193 | 0.0 | 0.0 | 0.00 | 4.27 | 0.00 | 98 | 1013.9 |
| 20260905112015 | 23 | 180 | 0.0 | 0.0 | 0.00 | 4.27 | 0.00 | 98 | 1013.9 |
| 20260905111536 | 23 | 70 | 0.0 | 0.0 | 0.00 | 4.27 | 0.00 | 98 | 1013.9 |
| 20260905111015 | 23 | 70 | 0.0 | 0.0 | 0.00 | 4.27 | 0.00 | 98 | 1013.9 |
| 20260905110514 | 23 | 70 | 0.0 | 0.0 | 0.00 | 4.27 | 0.00 | 98 | 1013.9 |
| 20260905110032 | 23 | 70 | 0.0 | 0.0 | 0.00 | 4.27 | 0.00 | 98 | 1013.9 |
| 20260905105519 | 23 | 70 | 0.0 | 0.0 | 0.00 | 4.27 | 0.00 | 98 | 1013.9 |
| 20260905105010 | 23 | 70 | 0.0 | 0.0 | 0.00 | 4.27 | 0.00 | 98 | 1013.9 |
| 20260905104525 | 23 | 70 | 0.0 | 0.0 | 0.00 | 4.27 | 0.00 | 98 | 1013.9 |
| 20260905104010 | 23 | 70 | 0.0 | 0.0 | 0.00 | 4.27 | 0.00 | 98 | 1013.9 |
| 20260905103511 | 23 | 70 | 0.0 | 0.0 | 0.00 | 4.27 | 0.00 | 98 | 1013.9 |
| 20260905103025 | 23 | 70 | 0.0 | 0.0 | 0.00 | 4.27 | 0.00 | 98 | 1013.8 |
| 20260905102513 | 23 | 70 | 0.0 | 0.0 | 0.00 | 4.27 | 0.00 | 98 | 1013.8 |
| 20260905102015 | 23 | 70 | 0.0 | 0.0 | 0.00 | 4.27 | 0.00 | 98 | 1013.7 |
| 20260905101531 | 23 | 70 | 0.0 | 0.0 | 0.00 | 4.27 | 0.00 | 98 | 1013.9 |
| 20260905101014 | 23 | 70 | 0.0 | 0.0 | 0.00 | 4.27 | 0.00 | 98 | 1013.9 |
| 20260905100514 | 23 | 70 | 0.0 | 0.0 | 0.00 | 4.27 | 0.00 | 98 | 1013.9 |
| 20260905100033 | 23 | 70 | 0.0 | 0.0 | 0.00 | 4.27 | 0.00 | 98 | 1013.9 |
| 20260905095515 | 23 | 70 | 0.0 | 0.0 | 0.00 | 4.27 | 0.00 | 98 | 1013.8 |
| 20260905095016 | 23 | 70 | 0.0 | 0.0 | 0.00 | 4.27 | 0.00 | 98 | 1013.8 |
| 20260905094532 | 23 | 70 | 0.0 | 0.0 | 0.00 | 4.27 | 0.00 | 98 | 1013.8 |
| 20260905094008 | 23 | 79 | 0.0 | 0.0 | 0.00 | 4.27 | 0.00 | 98 | 1013.9 |
| 20260905093511 | 23 | 79 | 0.0 | 0.0 | 0.00 | 4.27 | 0.00 | 98 | 1013.9 |
| 20260905093026 | 23 | 79 | 0.0 | 0.0 | 0.00 | 4.27 | 0.00 | 98 | 1013.8 |
| 20260905092511 | 23 | 79 | 0.0 | 0.0 | 0.00 | 4.27 | 0.00 | 98 | 1013.8 |
| 20260905092010 | 23 | 79 | 0.0 | 0.0 | 0.00 | 4.27 | 0.00 | 98 | 1013.8 |
| 20260905091527 | 23 | 79 | 0.0 | 0.0 | 0.00 | 4.27 | 0.00 | 98 | 1013.7 |
| 20260905091015 | 23 | 80 | 0.0 | 0.0 | 0.00 | 4.27 | 0.00 | 98 | 1013.7 |
| 20260905090515 | 23 | 42 | 0.0 | 0.0 | 0.00 | 4.27 | 0.00 | 98 | 1013.6 |
| 20260905090039 | 23 | 42 | 0.0 | 0.0 | 0.00 | 4.27 | 0.00 | 98 | 1013.6 |
| 20260905085514 | 23 | 42 | 0.0 | 0.0 | 0.00 | 4.27 | 0.00 | 98 | 1013.7 |
| 20260905085005 | 23 | 42 | 0.0 | 0.0 | 0.00 | 4.27 | 0.00 | 98 | 1013.7 |
| 20260905084515 | 23 | 42 | 0.0 | 0.0 | 0.00 | 4.27 | 0.00 | 98 | 1013.7 |
| 20260905084008 | 23 | 42 | 0.0 | 0.0 | 0.00 | 4.27 | 0.00 | 98 | 1013.6 |
| 20260905083508 | 23 | 42 | 0.0 | 0.0 | 0.00 | 4.27 | 0.00 | 98 | 1013.6 |
| 20260905083033 | 23 | 42 | 0.0 | 0.0 | 0.00 | 4.27 | 0.00 | 98 | 1013.6 |
| 20260905082510 | 23 | 42 | 0.0 | 0.0 | 0.00 | 4.27 | 0.00 | 98 | 1013.7 |
| 20260905082013 | 23 | 42 | 0.0 | 1.6 | 0.00 | 4.27 | 0.00 | 98 | 1013.6 |
| 20260905081503 | 23 | 42 | 0.0 | 3.2 | 0.00 | 4.27 | 0.00 | 98 | 1013.5 |
| 20260905081003 | 23 | 42 | 1.6 | 3.2 | 0.00 | 4.27 | 0.00 | 98 | 1013.4 |
| 20260905080503 | 23 | 41 | 0.0 | 0.0 | 0.00 | 4.27 | 0.00 | 98 | 1013.5 |
| 20260905080009 | 23 | 51 | 0.0 | 0.0 | 0.00 | 4.27 | 0.00 | 98 | 1013.4 |
| 20260905075506 | 23 | 51 | 0.0 | 0.0 | 0.00 | 4.27 | 0.00 | 98 | 1013.5 |
| 20260905075003 | 23 | 51 | 0.0 | 0.0 | 0.00 | 4.27 | 0.00 | 98 | 1013.4 |
| 20260905074515 | 23 | 51 | 0.0 | 0.0 | 0.00 | 4.27 | 0.00 | 98 | 1013.3 |
| 20260905074006 | 23 | 51 | 0.0 | 0.0 | 0.00 | 4.27 | 0.00 | 98 | 1013.4 |
| 20260905073508 | 23 | 51 | 0.0 | 0.0 | 0.00 | 4.27 | 0.00 | 98 | 1013.4 |
| 20260905073024 | 23 | 51 | 0.0 | 0.0 | 0.00 | 4.27 | 0.00 | 98 | 1013.3 |
| 20260905072511 | 23 | 51 | 0.0 | 0.0 | 0.00 | 4.27 | 0.00 | 98 | 1013.4 |
| 20260905072011 | 23 | 51 | 0.0 | 0.0 | 0.00 | 4.27 | 0.00 | 98 | 1013.5 |
| 20260905071527 | 23 | 93 | 0.0 | 0.0 | 0.00 | 4.27 | 0.00 | 98 | 1013.4 |
| 20260905071016 | 23 | 93 | 0.0 | 0.0 | 0.00 | 4.27 | 0.00 | 98 | 1013.3 |
| 20260905070502 | 23 | 93 | 0.0 | 0.0 | 0.00 | 4.27 | 0.00 | 98 | 1013.4 |
| 20260905070012 | 23 | 80 | 0.0 | 0.0 | 0.00 | 4.27 | 0.00 | 98 | 1013.4 |
| 20260905065502 | 23 | 80 | 0.0 | 0.0 | 0.00 | 4.27 | 0.00 | 98 | 1013.3 |
| 20260905065003 | 23 | 80 | 0.0 | 0.0 | 0.00 | 4.27 | 0.00 | 98 | 1013.2 |
| 20260905064514 | 23 | 178 | 0.0 | 0.0 | 0.00 | 4.27 | 0.00 | 98 | 1013.3 |
| 20260905064003 | 23 | 178 | 0.0 | 0.0 | 0.00 | 4.27 | 0.00 | 98 | 1013.3 |
| 20260905063506 | 23 | 178 | 0.0 | 0.0 | 0.00 | 4.27 | 0.00 | 98 | 1013.4 |
| 20260905063017 | 23 | 178 | 0.0 | 0.0 | 0.00 | 4.27 | 0.00 | 98 | 1013.5 |
| 20260905062507 | 23 | 163 | 0.0 | 0.0 | 0.00 | 4.27 | 0.00 | 98 | 1013.5 |
| 20260905062011 | 23 | 163 | 0.0 | 0.0 | 0.00 | 4.27 | 0.00 | 98 | 1013.5 |
| 20260905061525 | 23 | 163 | 0.0 | 0.0 | 0.00 | 4.27 | 0.00 | 98 | 1013.5 |
| 20260905061011 | 23 | 163 | 0.0 | 0.0 | 0.00 | 4.27 | 0.00 | 98 | 1013.5 |
| 20260905060511 | 23 | 163 | 0.0 | 0.0 | 0.00 | 4.27 | 0.00 | 98 | 1013.6 |
| 20260905060005 | 23 | 163 | 0.0 | 0.0 | 0.00 | 4.27 | 0.00 | 98 | 1013.6 |
| 20260905055505 | 23 | 163 | 0.0 | 0.0 | 0.00 | 4.27 | 0.00 | 98 | 1013.6 |
| 20260905055004 | 23 | 163 | 0.0 | 0.0 | 0.03 | 4.27 | 0.00 | 98 | 1013.6 |
| 20260905054512 | 23 | 163 | 0.0 | 0.0 | 0.03 | 4.27 | 0.00 | 98 | 1013.6 |
| 20260905054007 | 23 | 163 | 0.0 | 0.0 | 0.03 | 4.27 | 0.00 | 98 | 1013.6 |
| 20260905053504 | 23 | 163 | 0.0 | 0.0 | 0.03 | 4.27 | 0.00 | 98 | 1013.6 |
| 20260905053014 | 23 | 163 | 0.0 | 0.0 | 0.03 | 4.27 | 0.00 | 98 | 1013.7 |
| 20260905052507 | 23 | 81 | 0.0 | 0.0 | 0.03 | 4.27 | 0.00 | 98 | 1013.8 |
| 20260905052009 | 23 | 81 | 0.0 | 0.0 | 0.03 | 4.27 | 0.00 | 98 | 1013.9 |
| 20260905051529 | 23 | 81 | 0.0 | 0.0 | 0.03 | 4.27 | 0.00 | 98 | 1013.9 |
| 20260905051010 | 23 | 81 | 0.0 | 0.0 | 0.03 | 4.27 | 0.00 | 98 | 1013.9 |
| 20260905050512 | 23 | 81 | 0.0 | 0.0 | 0.03 | 4.27 | 0.00 | 98 | 1013.9 |
| 20260905050027 | 23 | 81 | 0.0 | 0.0 | 0.03 | 4.27 | 0.00 | 98 | 1013.8 |
| 20260905045515 | 23 | 81 | 0.0 | 0.0 | 0.03 | 4.27 | 4.27 | 98 | 1013.9 |
| 20260905045003 | 23 | 81 | 0.0 | 0.0 | 0.00 | 4.24 | 4.24 | 98 | 1014.0 |
| 20260905044509 | 23 | 81 | 0.0 | 0.0 | 0.00 | 4.24 | 4.24 | 98 | 1014.1 |
| 20260905044004 | 23 | 81 | 0.0 | 0.0 | 0.00 | 4.24 | 4.24 | 98 | 1014.1 |
| 20260905043504 | 23 | 81 | 0.0 | 3.2 | 0.00 | 4.24 | 4.24 | 98 | 1014.1 |
| 20260905043016 | 23 | 81 | 0.0 | 3.2 | 0.00 | 4.24 | 4.24 | 98 | 1014.1 |
| 20260905042508 | 23 | 81 | 1.6 | 4.8 | 0.00 | 4.24 | 4.24 | 98 | 1014.2 |
| 20260905042007 | 23 | 57 | 3.2 | 4.8 | 0.00 | 4.24 | 4.24 | 98 | 1014.3 |
| 20260905041522 | 23 | 57 | 3.2 | 4.8 | 0.00 | 4.24 | 4.24 | 98 | 1014.2 |
| 20260905041009 | 23 | 81 | 3.2 | 6.4 | 0.00 | 4.24 | 4.24 | 98 | 1014.2 |
| 20260905040511 | 23 | 81 | 0.0 | 6.4 | 0.00 | 4.24 | 4.24 | 97 | 1014.2 |
| 20260905040033 | 23 | 57 | 1.6 | 4.8 | 0.00 | 4.24 | 4.24 | 97 | 1014.3 |
| 20260905035514 | 23 | 84 | 1.6 | 6.4 | 0.00 | 4.24 | 4.24 | 97 | 1014.3 |
| 20260905035015 | 23 | 38 | 3.2 | 6.4 | 0.00 | 4.24 | 4.24 | 97 | 1014.3 |
| 20260905034531 | 23 | 59 | 3.2 | 6.4 | 0.00 | 4.24 | 4.24 | 97 | 1014.4 |
| 20260905034003 | 23 | 18 | 1.6 | 4.8 | 0.00 | 4.24 | 4.24 | 98 | 1014.4 |
| 20260905033503 | 23 | 62 | 0.0 | 0.0 | 0.00 | 4.24 | 4.24 | 98 | 1014.6 |
| 20260905033010 | 23 | 36 | 0.0 | 0.0 | 0.00 | 4.24 | 4.24 | 97 | 1014.5 |
| 20260905032502 | 23 | 36 | 0.0 | 0.0 | 0.00 | 4.24 | 4.24 | 97 | 1014.5 |
| 20260905032006 | 23 | 36 | 0.0 | 0.0 | 0.00 | 4.24 | 4.24 | 97 | 1014.6 |
| 20260905031520 | 23 | 36 | 0.0 | 0.0 | 0.00 | 4.24 | 4.24 | 97 | 1014.6 |
| 20260905031008 | 23 | 36 | 0.0 | 4.8 | 0.00 | 4.24 | 4.24 | 97 | 1014.6 |
| 20260905030510 | 23 | 29 | 0.0 | 4.8 | 0.00 | 4.24 | 4.24 | 97 | 1014.7 |
| 20260905030028 | 23 | 59 | 1.6 | 6.4 | 0.00 | 4.24 | 4.24 | 97 | 1014.8 |
| 20260905025512 | 23 | 62 | 3.2 | 6.4 | 0.00 | 4.24 | 4.24 | 97 | 1014.8 |
| 20260905025015 | 23 | 75 | 4.8 | 6.4 | 0.00 | 4.24 | 4.24 | 97 | 1014.9 |
| 20260905024532 | 23 | 92 | 0.0 | 4.8 | 0.00 | 4.24 | 4.24 | 97 | 1014.9 |
| 20260905024016 | 23 | 128 | 0.0 | 0.0 | 0.00 | 4.24 | 4.24 | 97 | 1014.8 |
| 20260905023516 | 23 | 128 | 0.0 | 0.0 | 0.00 | 4.24 | 4.24 | 97 | 1014.9 |
| 20260905023014 | 23 | 128 | 0.0 | 0.0 | 0.00 | 4.24 | 4.24 | 97 | 1014.8 |
| 20260905022506 | 23 | 128 | 0.0 | 0.0 | 0.00 | 4.24 | 4.24 | 97 | 1014.9 |
| 20260905022006 | 23 | 43 | 0.0 | 0.0 | 0.00 | 4.24 | 4.24 | 97 | 1015.1 |
| 20260905021516 | 23 | 43 | 0.0 | 0.0 | 0.00 | 4.24 | 4.24 | 97 | 1015.0 |
| 20260905021009 | 23 | 43 | 0.0 | 0.0 | 0.00 | 4.24 | 4.24 | 97 | 1015.0 |
| 20260905020509 | 23 | 43 | 0.0 | 3.2 | 0.00 | 4.24 | 4.24 | 97 | 1014.9 |
| 20260905020026 | 23 | 43 | 0.0 | 3.2 | 0.00 | 4.24 | 4.24 | 97 | 1014.9 |
| 20260905015512 | 23 | 36 | 1.6 | 3.2 | 0.00 | 4.24 | 4.24 | 97 | 1014.9 |
| 20260905015010 | 23 | 28 | 0.0 | 0.0 | 0.00 | 4.24 | 4.24 | 97 | 1014.9 |
| 20260905014529 | 23 | 84 | 0.0 | 0.0 | 0.00 | 4.24 | 4.24 | 97 | 1014.9 |
| 20260905014014 | 23 | 84 | 0.0 | 0.0 | 0.00 | 4.24 | 4.24 | 97 | 1014.7 |
| 20260905013513 | 23 | 84 | 0.0 | 0.0 | 0.00 | 4.24 | 4.24 | 97 | 1014.6 |
| 20260905013034 | 23 | 84 | 0.0 | 0.0 | 0.00 | 4.24 | 4.24 | 97 | 1014.6 |
| 20260905012514 | 23 | 84 | 0.0 | 0.0 | 0.00 | 4.24 | 4.24 | 97 | 1014.5 |
| 20260905012004 | 23 | 84 | 0.0 | 0.0 | 0.00 | 4.24 | 4.24 | 97 | 1014.3 |
| 20260905011516 | 23 | 84 | 0.0 | 0.0 | 0.00 | 4.24 | 4.24 | 97 | 1014.2 |
| 20260905011007 | 24 | 84 | 0.0 | 0.0 | 0.00 | 4.24 | 4.24 | 97 | 1014.3 |
| 20260905010508 | 24 | 84 | 0.0 | 0.0 | 0.00 | 4.24 | 4.24 | 97 | 1014.2 |
| 20260905010021 | 24 | 84 | 0.0 | 0.0 | 0.00 | 4.24 | 4.24 | 97 | 1014.2 |
| 20260905005508 | 23 | 84 | 0.0 | 0.0 | 0.00 | 4.24 | 4.24 | 97 | 1014.2 |
| 20260905005011 | 24 | 84 | 0.0 | 0.0 | 0.00 | 4.24 | 4.24 | 97 | 1014.2 |
| 20260905004527 | 24 | 84 | 0.0 | 0.0 | 0.00 | 4.24 | 4.24 | 97 | 1014.3 |
| 20260905004017 | 24 | 84 | 0.0 | 0.0 | 0.00 | 4.24 | 4.24 | 97 | 1014.4 |
| 20260905003514 | 24 | 84 | 0.0 | 3.2 | 0.00 | 4.24 | 4.24 | 97 | 1014.4 |
| 20260905003033 | 24 | 84 | 0.0 | 3.2 | 0.00 | 4.24 | 4.24 | 97 | 1014.4 |
| 20260905002516 | 24 | 84 | 0.0 | 3.2 | 0.00 | 4.24 | 4.24 | 97 | 1014.5 |
| 20260905002017 | 24 | 84 | 1.6 | 3.2 | 0.00 | 4.24 | 4.24 | 97 | 1014.4 |
| 20260905001537 | 24 | 84 | 0.0 | 0.0 | 0.00 | 4.24 | 4.24 | 97 | 1014.3 |
| 20260905001003 | 24 | 84 | 0.0 | 1.6 | 0.00 | 4.24 | 4.24 | 97 | 1014.2 |
| 20260905000503 | 24 | 63 | 0.0 | 1.6 | 0.00 | 4.24 | 4.24 | 97 | 1014.2 |
| 20260905000026 | 24 | 350 | 0.0 | 3.2 | 0.00 | 4.24 | 4.24 | 97 | 1014.1 |
| 20260904235509 | 24 | 162 | 0.0 | 3.2 | 0.00 | 4.24 | 4.24 | 97 | 1014.1 |
| 20260904235008 | 24 | 321 | 0.0 | 3.2 | 0.00 | 4.24 | 4.24 | 97 | 1014.1 |
| 20260904234524 | 24 | 85 | 0.0 | 1.6 | 0.00 | 4.24 | 4.24 | 97 | 1014.2 |
| 20260904234013 | 24 | 200 | 0.0 | 0.0 | 0.00 | 4.24 | 4.24 | 97 | 1014.2 |
| 20260904233512 | 24 | 311 | 0.0 | 0.0 | 0.00 | 4.24 | 4.24 | 97 | 1014.2 |
| 20260904233004 | 24 | 311 | 0.0 | 0.0 | 0.00 | 4.24 | 4.24 | 97 | 1014.2 |
| 20260904232501 | 24 | 151 | 0.0 | 0.0 | 0.00 | 4.24 | 4.24 | 97 | 1014.1 |
| 20260904232003 | 24 | 151 | 0.0 | 0.0 | 0.00 | 4.24 | 4.24 | 97 | 1014.0 |
| 20260904231513 | 24 | 151 | 0.0 | 0.0 | 0.03 | 4.24 | 4.24 | 97 | 1014.0 |
| 20260904231003 | 24 | 151 | 0.0 | 0.0 | 0.03 | 4.24 | 4.24 | 97 | 1013.9 |
| 20260904230504 | 24 | 151 | 0.0 | 3.2 | 0.05 | 4.24 | 4.24 | 97 | 1013.9 |
| 20260904230041 | 24 | 151 | 0.0 | 3.2 | 0.08 | 4.24 | 4.24 | 97 | 1013.9 |
| 20260904225508 | 23 | 196 | 1.6 | 3.2 | 0.10 | 4.24 | 4.24 | 97 | 1013.8 |
| 20260904225010 | 23 | 173 | 0.0 | 3.2 | 0.13 | 4.24 | 4.24 | 97 | 1013.8 |
| 20260904224520 | 23 | 173 | 0.0 | 3.2 | 0.15 | 4.24 | 4.24 | 97 | 1013.8 |
| 20260904224010 | 23 | 197 | 1.6 | 3.2 | 0.18 | 4.24 | 4.24 | 97 | 1013.9 |
| 20260904223514 | 23 | 179 | 0.0 | 3.2 | 0.20 | 4.24 | 4.24 | 97 | 1013.9 |
| 20260904223027 | 23 | 172 | 1.6 | 3.2 | 0.23 | 4.24 | 4.24 | 97 | 1014.1 |
| 20260904222516 | 23 | 163 | 1.6 | 6.4 | 0.25 | 4.24 | 4.24 | 97 | 1014.0 |
| 20260904222003 | 23 | 121 | 1.6 | 6.4 | 0.28 | 4.24 | 4.24 | 97 | 1013.9 |
| 20260904221510 | 23 | 103 | 1.6 | 4.8 | 0.25 | 4.22 | 4.22 | 97 | 1013.9 |
| 20260904221003 | 23 | 57 | 1.6 | 4.8 | 0.28 | 4.22 | 4.22 | 97 | 1013.9 |
| 20260904220504 | 23 | 82 | 3.2 | 4.8 | 0.25 | 4.19 | 4.19 | 97 | 1014.1 |
| 20260904220014 | 23 | 57 | 0.0 | 4.8 | 0.25 | 4.17 | 4.17 | 97 | 1014.0 |
| 20260904215508 | 23 | 87 | 1.6 | 4.8 | 0.23 | 4.14 | 4.14 | 97 | 1014.0 |
| 20260904215009 | 23 | 111 | 1.6 | 3.2 | 0.20 | 4.11 | 4.11 | 97 | 1014.1 |
| 20260904214518 | 23 | 111 | 1.6 | 3.2 | 0.20 | 4.09 | 4.09 | 97 | 1014.1 |
| 20260904214011 | 23 | 111 | 1.6 | 3.2 | 0.18 | 4.06 | 4.06 | 97 | 1014.1 |
| 20260904213512 | 23 | 103 | 3.2 | 3.2 | 0.18 | 4.04 | 4.04 | 97 | 1014.1 |
| 20260904213027 | 23 | 107 | 1.6 | 3.2 | 0.18 | 4.01 | 4.01 | 97 | 1014.1 |
| 20260904212513 | 23 | 158 | 0.0 | 3.2 | 0.20 | 3.99 | 3.99 | 97 | 1014.0 |
| 20260904212015 | 23 | 158 | 0.0 | 3.2 | 0.23 | 3.96 | 3.96 | 97 | 1014.0 |
| 20260904211530 | 23 | 140 | 1.6 | 3.2 | 0.30 | 3.96 | 3.96 | 97 | 1014.1 |
| 20260904211003 | 23 | 23 | 1.6 | 4.8 | 0.38 | 3.94 | 3.94 | 97 | 1014.1 |
| 20260904210504 | 23 | 43 | 1.6 | 4.8 | 0.51 | 3.94 | 3.94 | 97 | 1014.2 |
| 20260904210019 | 23 | 9 | 1.6 | 3.2 | 0.61 | 3.91 | 3.91 | 97 | 1014.2 |
| 20260904205506 | 23 | 55 | 0.0 | 0.0 | 0.76 | 3.91 | 3.91 | 97 | 1014.2 |
| 20260904205007 | 23 | 352 | 0.0 | 3.2 | 0.94 | 3.91 | 3.91 | 97 | 1014.1 |
| 20260904204516 | 23 | 352 | 0.0 | 6.4 | 1.09 | 3.89 | 3.89 | 97 | 1014.0 |
| 20260904204008 | 23 | 38 | 1.6 | 8.0 | 1.27 | 3.89 | 3.89 | 96 | 1014.1 |
| 20260904203511 | 23 | 67 | 3.2 | 8.0 | 1.45 | 3.86 | 3.86 | 96 | 1014.1 |
| 20260904203025 | 23 | 85 | 4.8 | 8.0 | 1.65 | 3.84 | 3.84 | 96 | 1014.2 |
| 20260904202510 | 23 | 73 | 1.6 | 4.8 | 1.85 | 3.78 | 3.78 | 97 | 1014.2 |
| 20260904202014 | 23 | 58 | 0.0 | 4.8 | 2.03 | 3.73 | 3.73 | 97 | 1014.1 |
| 20260904201529 | 23 | 58 | 0.0 | 8.0 | 2.26 | 3.66 | 3.66 | 96 | 1014.3 |
| 20260904201014 | 22 | 42 | 3.2 | 8.0 | 2.39 | 3.56 | 3.56 | 96 | 1014.4 |
| 20260904200502 | 22 | 352 | 4.8 | 8.0 | 2.51 | 3.43 | 3.43 | 96 | 1014.5 |
| 20260904200027 | 22 | 5 | 3.2 | 4.8 | 2.64 | 3.30 | 3.30 | 96 | 1014.8 |
| 20260904195505 | 22 | 352 | 1.6 | 6.4 | 2.74 | 3.15 | 3.15 | 96 | 1014.9 |
| 20260904195011 | 22 | 17 | 3.2 | 6.4 | 2.77 | 2.95 | 2.95 | 96 | 1014.7 |
| 20260904194517 | 22 | 70 | 1.6 | 6.4 | 2.74 | 2.79 | 2.79 | 96 | 1014.6 |
| 20260904194010 | 22 | 5 | 0.0 | 14.5 | 2.59 | 2.62 | 2.62 | 96 | 1014.4 |
| 20260904193510 | 22 | 83 | 4.8 | 14.5 | 2.39 | 2.41 | 2.41 | 95 | 1014.6 |
| 20260904193021 | 22 | 82 | 6.4 | 11.3 | 2.16 | 2.18 | 2.18 | 95 | 1014.6 |
| 20260904192514 | 22 | 67 | 1.6 | 12.9 | 1.91 | 1.93 | 1.93 | 95 | 1014.7 |
| 20260904192012 | 22 | 107 | 6.4 | 14.5 | 1.68 | 1.70 | 1.70 | 95 | 1015.1 |
| 20260904191529 | 22 | 73 | 11.3 | 16.1 | 1.37 | 1.40 | 1.40 | 94 | 1015.2 |
| 20260904191017 | 22 | 119 | 6.4 | 17.7 | 1.14 | 1.17 | 1.17 | 94 | 1015.3 |
| 20260904190514 | 23 | 160 | 11.3 | 22.5 | 0.89 | 0.91 | 0.91 | 94 | 1015.2 |
| 20260904190029 | 23 | 173 | 9.7 | 22.5 | 0.61 | 0.64 | 0.64 | 94 | 1015.4 |
| 20260904185505 | 23 | 200 | 11.3 | 32.2 | 0.38 | 0.41 | 0.41 | 93 | 1015.4 |
| 20260904185007 | 23 | 203 | 11.3 | 41.8 | 0.18 | 0.20 | 0.20 | 90 | 1015.2 |
| 20260904184513 | 25 | 192 | 17.7 | 41.8 | 0.03 | 0.05 | 0.05 | 86 | 1015.4 |
| 20260904184007 | 26 | 151 | 11.3 | 29.0 | 0.00 | 0.03 | 0.03 | 83 | 1015.2 |
| 20260904183511 | 28 | 146 | 9.7 | 27.4 | 0.00 | 0.03 | 0.03 | 83 | 1015.3 |
| 20260904183017 | 28 | 195 | 0.0 | 4.8 | 0.00 | 0.03 | 0.03 | 83 | 1015.1 |
| 20260904182513 | 28 | 256 | 1.6 | 8.0 | 0.00 | 0.03 | 0.03 | 81 | 1014.9 |
| 20260904182016 | 28 | 341 | 3.2 | 17.7 | 0.00 | 0.03 | 0.03 | 81 | 1014.5 |
| 20260904181530 | 29 | 327 | 4.8 | 17.7 | 0.00 | 0.03 | 0.03 | 80 | 1014.1 |
| 20260904181020 | 28 | 31 | 6.4 | 17.7 | 0.00 | 0.03 | 0.03 | 83 | 1014.2 |
| 20260904180514 | 28 | 329 | 8.0 | 17.7 | 0.00 | 0.03 | 0.03 | 83 | 1014.2 |
| 20260904180028 | 29 | 28 | 8.0 | 17.7 | 0.00 | 0.03 | 0.03 | 82 | 1014.4 |
| 20260904175514 | 30 | 349 | 9.7 | 16.1 | 0.00 | 0.03 | 0.03 | 80 | 1014.5 |